Regional Weather Roundup
Issued by NWS

Home | Current Version | Previous Version | Graphics & Text | Print | Product List | Glossary On
Versions: 1 2 3 4 5 6 7 8 9 10 11 12 13 14 15 16 17 18 19 20 21 22 23 24 25 26 27 28 29 30 31 32 33 34 35 36 37 38 39 40 41 42 43 44 45 46 47 48 49 50
000
ASUS43 KLMK 240310
RWRKY
KENTUCKY REGIONAL WEATHER ROUNDUP
NATIONAL WEATHER SERVICE LOUISVILLE KY
1100 PM EDT SAT JUL 23 2016

NOTE "FAIR" INDICATES FEW OR NO CLOUDS BELOW 12,000 FEET
WITH NO SIGNIFICANT WEATHER AND/OR OBSTRUCTIONS TO VISIBILITY.

KYZ001>023-026-027-061>063-070>075-240400-
WESTERN AND SOUTH CENTRAL KENTUCKY

CITY           SKY/WX    TMP DP  RH WIND       PRES   REMARKS
PADUCAH        CLOUDY    80  76  87 S3        29.96R
HENDERSON      CLEAR     79  75  89 SE5       29.96S
OWENSBORO      CLEAR     85  79  82 CALM      29.99R HX  98
HOPKINSVILLE   CLOUDY    76  76 100 S3        29.99R
BOWLING GREEN  PTCLDY    83  74  74 S3        30.00R
GLASGOW        CLEAR     81  72  75 S3        30.01R
$$

KYZ024-025-028>034-038-045-046-053-240400-
NORTH CENTRAL KENTUCKY

CITY           SKY/WX    TMP DP  RH WIND       PRES   REMARKS
LOUISVILLE/SDF MOCLDY    87  73  62 SW5       29.99R HX  94
LOUISVILLE/LOU MOCLDY    86  73  65 CALM      30.00R HX  93
FORT KNOX      CLEAR     78  75  93 NW2       30.00R
$$

KYZ035>037-039>044-047>052-055>060-089>105-240400-
NORTHEAST KENTUCKY

CITY           SKY/WX    TMP DP  RH WIND       PRES   REMARKS
LEXINGTON      MOCLDY    82  74  76 W3        30.03R
COVINGTON      PTCLDY    77  74  90 CALM      30.02R
FRANKFORT      CLEAR     79  73  82 CALM      30.00R
$$

KYZ054-064>069-076>088-106>120-240400-
SOUTHEAST KENTUCKY

CITY           SKY/WX    TMP DP  RH WIND       PRES   REMARKS
JACKSON        CLOUDY    80  71  74 CALM      30.05R
LONDON         CLOUDY    80  70  71 CALM      30.04R
SOMERSET       CLEAR     77  70  78 CALM      30.04R
MIDDLESBORO    CLEAR     74  73  96 CALM      30.06R
MONTICELLO     PTCLDY   N/A N/A N/A W12       30.05R
$$




USA.gov is the U.S. government's official web portal to all federal, state and local government web resources and services.